N8FIS Weather Reports


Display with metric or nautical units.
time (UTC)temp
F
wind
direction
speed
MPH
gust
MPH
rain 1hr
in
rain 24hr
in
rain mn
in
humidity
%
barometer
mb
20260508165126 57 190 3.0 6.0 0.00 0.02 0.02 79 1010.8
20260508164550 56 194 1.0 5.0 0.00 0.02 0.02 79 1010.8
20260508164058 56 167 2.0 5.0 0.00 0.02 0.02 81 1010.8
20260508163604 55 178 0.0 3.0 0.00 0.02 0.02 81 1010.8
20260508163051 55 267 1.0 4.0 0.00 0.02 0.02 80 1010.9
20260508162555 55 302 1.0 4.0 0.00 0.02 0.02 80 1011.2
20260508162115 55 275 0.0 3.0 0.00 0.02 0.02 79 1011.2
20260508161604 55 252 1.0 4.0 0.00 0.02 0.02 79 1011.3
20260508161108 55 216 1.0 4.0 0.00 0.02 0.02 77 1011.3
20260508160553 55 360 1.0 3.0 0.00 0.02 0.02 76 1011.2
20260508160100 55 170 0.0 3.0 0.00 0.02 0.02 76 1011.1
20260508155604 56 323 1.0 3.0 0.00 0.02 0.02 77 1011.2
20260508155116 55 288 0.0 2.0 0.00 0.02 0.02 77 1011.2
20260508154558 55 273 1.0 4.0 0.00 0.02 0.02 77 1011.2
20260508154102 55 160 1.0 4.0 0.00 0.02 0.02 76 1011.2
20260508153606 55 273 1.0 5.0 0.00 0.02 0.02 76 1011.1
20260508153050 55 289 1.0 5.0 0.00 0.02 0.02 76 1011.2
20260508152618 55 209 1.0 3.0 0.00 0.02 0.02 76 1011.2
20260508152127 55 296 0.0 3.0 0.00 0.02 0.02 76 1011.1
20260508151611 55 298 0.0 10.0 0.00 0.02 0.02 75 1011.1
20260508151055 55 268 1.0 10.0 0.00 0.02 0.02 75 1011.2
20260508150601 55 15 0.0 5.0 0.00 0.02 0.02 75 1011.2
20260508150104 56 348 0.0 7.0 0.00 0.02 0.02 74 1011.1
20260508145548 56 271 1.0 6.0 0.00 0.02 0.02 74 1011.2
20260508145054 56 232 1.0 6.0 0.00 0.02 0.02 73 1011.1
20260508144600 56 335 1.0 6.0 0.00 0.02 0.02 75 1011.2
20260508144126 56 264 1.0 6.0 0.00 0.02 0.02 74 1011.0
20260508143550 57 304 0.0 2.0 0.00 0.02 0.02 73 1011.0
20260508143056 58 304 1.0 3.0 0.00 0.02 0.02 73 1011.2
20260508142601 57 234 1.0 3.0 0.00 0.02 0.02 75 1011.1
20260508142048 56 187 1.0 3.0 0.00 0.02 0.02 76 1011.1
20260508141618 55 211 0.0 2.0 0.00 0.02 0.02 76 1011.0
20260508141058 55 315 1.0 3.0 0.00 0.02 0.02 76 1010.9
20260508140603 55 298 1.0 3.0 0.00 0.02 0.02 76 1011.1
20260508140049 55 113 1.0 3.0 0.00 0.02 0.02 77 1011.1
20260508135554 54 9 1.0 3.0 0.00 0.02 0.02 78 1011.2
20260508135058 53 271 1.0 5.0 0.00 0.02 0.02 77 1011.4
20260508134604 54 292 2.0 5.0 0.00 0.02 0.02 77 1011.4
20260508134049 54 126 2.0 3.0 0.00 0.02 0.02 76 1011.4
20260508133554 54 331 1.0 3.0 0.00 0.02 0.02 76 1011.4
20260508133053 54 331 1.0 5.0 0.00 0.02 0.02 77 1011.4
20260508132558 54 275 2.0 5.0 0.00 0.02 0.02 78 1011.4
20260508132103 54 330 1.0 3.0 0.00 0.02 0.02 79 1011.3
20260508131550 53 294 0.0 4.0 0.00 0.02 0.02 79 1011.2
20260508131101 53 257 1.0 4.0 0.00 0.02 0.02 79 1011.2
20260508130604 53 274 1.0 3.0 0.00 0.02 0.02 80 1011.2
20260508130121 52 5 1.0 3.0 0.00 0.02 0.02 82 1011.2
20260508125606 51 333 1.0 4.0 0.00 0.02 0.02 81 1011.3
20260508125050 51 267 1.0 4.0 0.00 0.02 0.02 82 1011.3
20260508124554 50 311 0.0 3.0 0.00 0.02 0.02 83 1011.3
20260508124058 50 284 1.0 2.0 0.00 0.02 0.02 83 1011.4
20260508123604 49 298 1.0 4.0 0.00 0.02 0.02 83 1011.5
20260508123119 49 78 2.0 5.0 0.00 0.02 0.02 83 1011.5
20260508122558 49 301 1.0 5.0 0.00 0.02 0.02 83 1011.4
20260508122105 49 207 2.0 9.0 0.00 0.02 0.02 83 1011.4
20260508121549 49 313 2.0 9.0 0.00 0.02 0.02 83 1011.5
20260508121055 48 235 2.0 6.0 0.00 0.02 0.02 84 1011.5
20260508120559 48 318 1.0 5.0 0.00 0.02 0.02 85 1011.4
20260508120104 48 175 0.0 5.0 0.00 0.02 0.02 84 1011.2
20260508115548 48 230 1.0 4.0 0.00 0.02 0.02 85 1011.1
20260508115053 48 202 1.0 4.0 0.00 0.02 0.02 86 1011.0
20260508114618 47 199 0.0 4.0 0.00 0.02 0.02 86 1011.0
20260508114126 47 223 1.0 3.0 0.00 0.02 0.02 87 1010.8
20260508113619 47 275 1.0 4.0 0.00 0.02 0.02 87 1010.8
20260508113103 46 252 1.0 3.0 0.00 0.02 0.02 88 1010.7
20260508112550 46 217 0.0 3.0 0.00 0.02 0.02 88 1010.7
20260508112056 46 170 1.0 3.0 0.00 0.02 0.02 89 1010.7
20260508111623 45 252 1.0 3.0 0.00 0.02 0.02 89 1010.6
20260508111106 45 233 1.0 3.0 0.00 0.02 0.02 89 1010.6
20260508110610 45 175 1.0 2.0 0.00 0.02 0.02 89 1010.5
20260508110055 45 185 1.0 2.0 0.00 0.02 0.02 89 1010.3
20260508105559 45 175 1.0 3.0 0.00 0.02 0.02 89 1010.4
20260508105103 45 197 1.0 3.0 0.00 0.02 0.02 89 1010.5
20260508104604 45 186 0.0 1.0 0.00 0.02 0.02 88 1010.5
20260508104053 45 186 0.0 3.0 0.00 0.02 0.02 88 1010.5
20260508103624 45 186 1.0 3.0 0.00 0.02 0.02 88 1010.5
20260508103050 45 298 0.0 2.0 0.00 0.02 0.02 88 1010.4
20260508102555 46 261 1.0 2.0 0.00 0.02 0.02 88 1010.4
20260508102058 46 194 1.0 4.0 0.00 0.02 0.02 88 1010.3
20260508101604 46 197 0.0 4.0 0.00 0.02 0.02 88 1010.3
20260508101048 46 171 1.0 3.0 0.00 0.02 0.02 88 1010.3
20260508100620 46 221 0.0 2.0 0.01 0.02 0.02 87 1010.3
20260508100104 46 202 1.0 4.0 0.02 0.02 0.02 87 1010.3
20260508095615 46 199 2.0 4.0 0.02 0.02 0.02 87 1010.3
20260508095100 46 194 1.0 3.0 0.02 0.02 0.02 87 1010.4
20260508094604 47 171 1.0 3.0 0.02 0.02 0.02 87 1010.4
20260508094049 47 188 0.0 3.0 0.02 0.02 0.02 87 1010.5
20260508093552 47 186 1.0 4.0 0.02 0.02 0.02 87 1010.6
20260508093057 47 188 1.0 4.0 0.02 0.02 0.02 87 1010.6
20260508092605 47 237 1.0 2.0 0.02 0.02 0.02 87 1010.6
20260508092048 47 175 2.0 2.0 0.02 0.02 0.02 86 1010.6
20260508091557 47 184 0.0 4.0 0.02 0.02 0.02 86 1010.5
20260508091101 48 242 1.0 7.0 0.02 0.02 0.02 85 1010.5
20260508090544 48 205 3.0 7.0 0.01 0.01 0.01 84 1010.7
20260508090111 48 328 1.0 4.0 0.00 0.00 0.00 83 1010.7
20260508085553 48 186 1.0 4.0 0.00 0.00 0.00 84 1010.6
20260508085121 47 184 2.0 4.0 0.00 0.00 0.00 84 1010.7
20260508084605 47 182 2.0 3.0 0.00 0.00 0.00 84 1010.6
20260508084110 47 252 1.0 3.0 0.00 0.00 0.00 84 1010.6
20260508083549 47 242 1.0 2.0 0.00 0.00 0.00 84 1010.6
20260508083053 47 105 1.0 4.0 0.00 0.00 0.00 84 1010.5
20260508082601 47 150 1.0 4.0 0.00 0.00 0.00 84 1010.6
20260508082104 47 274 0.0 1.0 0.00 0.00 0.00 85 1010.6
20260508081548 47 345 0.0 4.0 0.00 0.00 0.00 85 1010.7
20260508081052 47 215 0.0 4.0 0.00 0.00 0.00 85 1010.7
20260508080558 47 211 1.0 4.0 0.00 0.00 0.00 85 1010.7
20260508080100 47 250 2.0 4.0 0.00 0.00 0.00 86 1010.7
20260508075605 47 222 0.0 4.0 0.00 0.00 0.00 86 1010.6
20260508075118 46 190 1.0 4.0 0.00 0.00 0.00 86 1010.6
20260508074603 46 219 1.0 6.0 0.00 0.00 0.00 87 1010.6
20260508074050 46 136 0.0 4.0 0.00 0.00 0.00 87 1010.6
20260508073554 46 180 1.0 4.0 0.00 0.00 0.00 87 1010.7
20260508073058 46 186 1.0 4.0 0.00 0.00 0.00 87 1010.8
20260508072624 46 175 2.0 4.0 0.00 0.00 0.00 86 1010.9
20260508072107 46 229 0.0 3.0 0.00 0.00 0.00 86 1010.9
20260508071554 46 179 0.0 3.0 0.00 0.00 0.00 86 1010.9
20260508071124 46 171 1.0 5.0 0.00 0.00 0.00 85 1010.9
20260508070549 46 251 1.0 5.0 0.00 0.00 0.00 85 1010.9
20260508070054 46 171 1.0 5.0 0.00 0.00 0.00 85 1011.0
20260508065614 46 177 2.0 5.0 0.00 0.00 0.00 85 1011.1
20260508065124 46 175 1.0 6.0 0.00 0.00 0.00 85 1011.1
20260508064615 46 180 0.0 6.0 0.00 0.00 0.00 84 1011.2
20260508064103 46 179 1.0 3.0 0.00 0.00 0.00 84 1011.2
20260508063554 46 252 1.0 3.0 0.00 0.00 0.00 83 1011.2
20260508063101 46 184 0.0 3.0 0.00 0.00 0.00 83 1011.2
20260508062605 47 138 0.0 2.0 0.00 0.00 0.00 83 1011.3
20260508062049 47 258 0.0 3.0 0.00 0.00 0.00 83 1011.3
20260508061556 47 213 1.0 3.0 0.00 0.00 0.00 82 1011.3
20260508061101 47 255 2.0 3.0 0.00 0.00 0.00 82 1011.3
20260508060607 47 252 1.0 6.0 0.00 0.00 0.00 82 1011.3
20260508060122 47 261 2.0 6.0 0.00 0.00 0.00 81 1011.3
20260508055606 48 266 2.0 11.0 0.00 0.00 0.00 81 1011.4
20260508055052 48 309 1.0 11.0 0.00 0.00 0.00 80 1011.4
20260508054552 48 306 1.0 10.0 0.00 0.00 0.00 80 1011.4
20260508054058 48 169 0.0 8.0 0.00 0.00 0.00 79 1011.5
20260508053602 48 342 2.0 8.0 0.00 0.00 0.00 79 1011.6
20260508053052 49 298 0.0 4.0 0.00 0.00 0.00 78 1011.6
20260508052557 49 336 1.0 5.0 0.00 0.00 0.00 77 1011.4
20260508052102 49 5 1.0 5.0 0.00 0.00 0.00 77 1011.4
20260508051616 49 303 0.0 3.0 0.00 0.00 0.00 76 1011.4
20260508051059 49 235 0.0 7.0 0.00 0.00 0.00 76 1011.3
20260508050601 49 191 1.0 9.0 0.00 0.00 0.00 75 1011.3
20260508050050 49 190 3.0 9.0 0.00 0.00 0.00 74 1011.3
20260508045557 49 236 2.0 11.0 0.00 0.00 0.00 74 1011.4
20260508045102 50 248 2.0 11.0 0.00 0.00 0.00 73 1011.5
20260508044555 50 232 1.0 10.0 0.00 0.00 0.00 72 1011.5
20260508044058 49 322 2.0 10.0 0.00 0.00 0.00 73 1011.5
20260508043604 49 193 1.0 4.0 0.00 0.00 0.00 74 1011.5
20260508043107 49 180 1.0 4.0 0.00 0.00 0.00 74 1011.6
20260508042555 48 190 1.0 3.0 0.00 0.00 0.00 75 1011.6
20260508042047 48 192 1.0 3.0 0.00 0.00 0.00 75 1011.6
20260508041551 48 196 0.0 2.0 0.00 0.00 0.00 75 1011.5
20260508041123 48 167 1.0 3.0 0.00 0.00 0.00 76 1011.4
20260508040549 48 184 1.0 3.0 0.00 0.00 0.00 76 1011.5
20260508040054 48 185 1.0 2.0 0.00 0.00 0.00 76 1011.5
20260508035554 48 178 0.0 2.0 0.00 0.00 0.00 76 1011.5
20260508035100 48 173 1.0 2.0 0.00 0.00 0.00 76 1011.5
20260508034605 48 184 0.0 3.0 0.00 0.00 0.00 75 1011.6
20260508034051 48 183 0.0 3.0 0.00 0.00 0.00 75 1011.7
20260508033600 48 175 1.0 3.0 0.00 0.00 0.00 75 1011.7
20260508033105 49 215 0.0 1.0 0.00 0.00 0.00 74 1011.8
20260508032549 49 189 0.0 1.0 0.00 0.00 0.00 74 1011.7
20260508032112 49 197 0.0 2.0 0.00 0.00 0.00 73 1011.7
20260508031556 49 197 0.0 2.0 0.00 0.00 0.00 72 1011.8
20260508031102 49 178 0.0 3.0 0.00 0.00 0.00 72 1011.7
20260508030549 49 176 0.0 3.0 0.00 0.00 0.00 71 1011.8
20260508030054 49 173 1.0 2.0 0.00 0.00 0.00 71 1011.9
20260508025600 50 173 0.0 2.0 0.00 0.00 0.00 70 1011.9
20260508025104 50 193 1.0 5.0 0.00 0.00 0.00 70 1012.1
20260508024550 50 188 0.0 6.0 0.00 0.00 0.00 69 1012.0
20260508024054 50 222 0.0 6.0 0.00 0.00 0.00 69 1012.1
20260508023559 50 177 1.0 3.0 0.00 0.00 0.00 69 1012.1
20260508023104 50 173 1.0 4.0 0.00 0.00 0.00 68 1012.1
20260508022549 50 200 1.0 4.0 0.00 0.00 0.00 68 1012.0
20260508022053 50 207 0.0 3.0 0.00 0.00 0.00 68 1012.0
20260508021558 50 140 0.0 6.0 0.00 0.00 0.00 68 1012.1
20260508021102 50 178 1.0 6.0 0.00 0.00 0.00 67 1012.1
20260508020544 51 243 0.0 5.0 0.00 0.00 0.00 67 1012.0
20260508020053 51 259 1.0 4.0 0.00 0.00 0.00 66 1012.0
20260508015558 51 148 1.0 3.0 0.00 0.00 0.00 65 1012.0
20260508015104 51 268 0.0 5.0 0.00 0.00 0.00 64 1012.0
20260508014615 51 261 2.0 5.0 0.00 0.00 0.00 63 1012.0
20260508014058 51 196 1.0 5.0 0.00 0.00 0.00 63 1012.1
20260508013604 52 67 0.0 5.0 0.00 0.00 0.00 62 1012.1
20260508013049 52 241 3.0 7.0 0.00 0.00 0.00 61 1012.0
20260508012553 52 242 2.0 7.0 0.00 0.00 0.00 60 1011.9
20260508012057 52 190 3.0 7.0 0.00 0.00 0.00 59 1011.8
20260508011605 53 265 1.0 7.0 0.00 0.00 0.00 58 1011.7
20260508011049 53 178 4.0 7.0 0.00 0.00 0.00 57 1011.6
20260508010554 53 288 1.0 7.0 0.00 0.00 0.00 56 1011.6
20260508010100 53 303 3.0 7.0 0.00 0.00 0.00 55 1011.5
20260508005604 53 276 2.0 7.0 0.00 0.00 0.00 54 1011.5
20260508005049 54 270 3.0 6.0 0.00 0.00 0.00 53 1011.4
20260508004556 54 257 1.0 10.0 0.00 0.00 0.00 52 1011.4
20260508004045 54 22 3.0 10.0 0.00 0.00 0.00 51 1011.3
20260508003555 55 162 2.0 9.0 0.00 0.00 0.00 49 1011.2
20260508003058 55 294 2.0 9.0 0.00 0.00 0.00 49 1011.2
20260508002604 55 224 2.0 7.0 0.00 0.00 0.00 48 1011.1
20260508002049 55 301 0.0 8.0 0.00 0.00 0.00 46 1011.0
20260508001557 55 252 1.0 8.0 0.00 0.00 0.00 46 1010.9
20260508001047 55 311 3.0 5.0 0.00 0.00 0.00 47 1011.0
20260508000618 55 261 0.0 2.0 0.00 0.00 0.00 48 1011.0
20260508000105 55 312 0.0 2.0 0.00 0.00 0.00 47 1010.8
20260507235609 56 323 0.0 1.0 0.00 0.00 0.00 46 1010.8
20260507235059 56 294 0.0 2.0 0.00 0.00 0.00 47 1010.7
20260507234605 56 328 0.0 2.0 0.00 0.00 0.00 45 1010.8
20260507234050 56 140 0.0 2.0 0.00 0.00 0.00 45 1010.7
20260507233556 56 62 0.0 3.0 0.00 0.00 0.00 44 1010.8
20260507233102 57 303 1.0 3.0 0.00 0.00 0.00 44 1010.7
20260507232612 57 252 1.0 2.0 0.00 0.00 0.00 44 1010.7
20260507232109 57 300 0.0 2.0 0.00 0.00 0.00 43 1010.6
20260507231619 57 319 1.0 2.0 0.00 0.00 0.00 42 1010.8
20260507231104 57 213 1.0 2.0 0.00 0.00 0.00 44 1010.8
20260507230549 57 332 1.0 5.0 0.00 0.00 0.00 43 1010.8
20260507230053 58 325 2.0 5.0 0.00 0.00 0.00 42 1010.7
20260507225559 57 339 0.0 2.0 0.00 0.00 0.00 43 1010.8
20260507225105 57 213 0.0 3.0 0.00 0.00 0.00 43 1010.8
20260507224551 58 225 1.0 3.0 0.00 0.00 0.00 41 1010.8
20260507224056 58 321 0.0 3.0 0.00 0.00 0.00 42 1010.9
20260507223602 58 331 1.0 5.0 0.00 0.00 0.00 42 1010.9
20260507223051 59 296 0.0 5.0 0.00 0.00 0.00 41 1010.9
20260507222556 59 315 1.0 6.0 0.00 0.00 0.00 40 1011.0
20260507222100 60 333 2.0 6.0 0.00 0.00 0.00 40 1011.0
20260507221604 60 336 1.0 3.0 0.00 0.00 0.00 38 1011.0
20260507221050 60 336 0.0 5.0 0.00 0.00 0.00 42 1010.9
20260507220556 60 340 2.0 7.0 0.00 0.00 0.00 41 1011.0
20260507220058 60 342 2.0 7.0 0.00 0.00 0.00 41 1011.0
20260507215605 60 313 2.0 6.0 0.00 0.00 0.00 41 1010.9
20260507215050 60 311 1.0 7.0 0.00 0.00 0.00 42 1010.8
20260507214557 60 328 3.0 7.0 0.00 0.00 0.00 40 1010.8
20260507214102 60 322 2.0 5.0 0.00 0.00 0.00 40 1010.9
20260507213608 60 322 1.0 4.0 0.00 0.00 0.00 43 1010.8
20260507213119 59 294 1.0 6.0 0.00 0.00 0.00 44 1010.8
20260507212605 59 271 1.0 6.0 0.00 0.00 0.00 44 1010.9
20260507212051 58 347 1.0 4.0 0.00 0.00 0.00 44 1011.0
20260507211558 59 336 1.0 7.0 0.00 0.00 0.00 43 1011.0
20260507211104 60 241 2.0 11.0 0.00 0.00 0.00 41 1011.0
20260507210615 60 333 3.0 11.0 0.00 0.00 0.00 40 1010.9
20260507205548 61 355 2.0 8.0 0.00 0.00 0.00 42 1011.0
20260507205053 60 5 1.0 7.0 0.00 0.00 0.00 43 1011.0
20260507204622 60 316 1.0 10.0 0.00 0.00 0.00 44 1010.9
20260507204048 59 340 4.0 14.0 0.00 0.00 0.00 43 1010.9
20260507203554 59 304 2.0 14.0 0.00 0.00 0.00 42 1010.9
20260507203101 59 279 3.0 7.0 0.00 0.00 0.00 45 1011.0
20260507202550 59 273 2.0 5.0 0.00 0.00 0.00 43 1011.0
20260507202056 58 298 2.0 4.0 0.00 0.00 0.00 44 1011.0
20260507201605 58 308 1.0 5.0 0.00 0.00 0.00 45 1011.0
20260507201116 58 317 1.0 6.0 0.00 0.00 0.00 43 1011.0
20260507200601 59 248 2.0 6.0 0.00 0.00 0.00 42 1011.1
20260507200049 59 296 2.0 10.0 0.00 0.00 0.00 46 1011.0
20260507195619 58 35 1.0 10.0 0.00 0.00 0.00 44 1011.1
20260507195048 59 332 1.0 5.0 0.00 0.00 0.00 43 1011.1
20260507194558 60 193 2.0 5.0 0.00 0.00 0.00 40 1011.0
20260507194102 61 43 1.0 10.0 0.00 0.00 0.00 43 1011.0
20260507193614 60 189 2.0 13.0 0.00 0.00 0.00 44 1011.0
20260507193054 61 360 2.0 6.0 0.00 0.00 0.00 41 1011.1
20260507192601 61 336 2.0 6.0 0.00 0.00 0.00 43 1011.1
20260507192108 61 360 1.0 5.0 0.00 0.00 0.00 42 1011.2
20260507191619 61 24 1.0 5.0 0.00 0.00 0.00 42 1011.2
20260507191105 61 274 1.0 7.0 0.00 0.00 0.00 44 1011.3
20260507190550 61 294 2.0 7.0 0.00 0.00 0.00 42 1011.3
20260507185605 60 355 2.0 5.0 0.00 0.00 0.00 44 1011.5
20260507185049 60 333 2.0 4.0 0.00 0.00 0.00 47 1011.4
20260507184600 60 332 2.0 6.0 0.00 0.00 0.00 44 1011.5
20260507184105 59 288 1.0 6.0 0.00 0.00 0.00 47 1011.4
20260507183550 58 265 2.0 5.0 0.00 0.00 0.00 46 1011.5
20260507183054 58 304 2.0 9.0 0.00 0.00 0.00 45 1011.6
20260507182555 57 16 2.0 7.0 0.00 0.00 0.00 49 1011.6
20260507182101 56 286 2.0 6.0 0.00 0.00 0.00 48 1011.6
20260507181546 57 310 1.0 6.0 0.00 0.00 0.00 48 1011.6
20260507181055 57 310 2.0 7.0 0.00 0.00 0.00 48 1011.6
20260507180600 57 265 2.0 7.0 0.00 0.00 0.00 49 1011.5
20260507180104 58 260 2.0 7.0 0.00 0.00 0.00 48 1011.7
20260507175608 58 290 2.0 10.0 0.00 0.00 0.00 47 1011.6
20260507175053 59 291 2.0 10.0 0.00 0.00 0.00 48 1011.7
20260507174600 59 267 1.0 4.0 0.00 0.00 0.00 48 1011.6
20260507174105 58 307 2.0 4.0 0.00 0.00 0.00 49 1011.7
20260507173551 57 5 2.0 4.0 0.00 0.00 0.00 51 1011.6
20260507173056 58 293 1.0 5.0 0.00 0.00 0.00 50 1011.8
20260507172601 58 285 0.0 6.0 0.00 0.00 0.00 52 1011.8
20260507172106 58 287 2.0 11.0 0.00 0.00 0.00 53 1011.9
20260507171551 58 350 3.0 11.0 0.00 0.00 0.00 50 1011.9
20260507171115 58 144 1.0 6.0 0.00 0.00 0.00 54 1011.9
20260507170601 57 325 2.0 6.0 0.00 0.00 0.00 52 1012.1
20260507170047 57 319 1.0 4.0 0.00 0.00 0.00 52 1012.1
20260507165553 57 343 2.0 7.0 0.00 0.00 0.00 51 1012.2